Hourly Weather Acebo

Today, 29 July, Thursday

Time Temperature Precipitation Wind Pressure Humidity
00:00 +20°C° 0 mm 2 mps 695 mmHg 39%
01:00 +21°C° 0 mm 1 mps 695 mmHg 41%
02:00 +20°C° 0 mm 1 mps 695 mmHg 43%
03:00 +20°C° 0 mm 1 mps 694 mmHg 44%
04:00 +19°C° 0 mm 1 mps 695 mmHg 45%
05:00 +19°C° 0 mm 1 mps 695 mmHg 46%
06:00 +19°C° 0 mm 1 mps 695 mmHg 46%
07:00 +22°C° 0 mm 1 mps 695 mmHg 40%
08:00 +25°C° 0 mm 1 mps 696 mmHg 34%
09:00 +28°C° 0 mm 2 mps 697 mmHg 28%
10:00 +29°C° 0 mm 2 mps 697 mmHg 25%
11:00 +31°C° 0 mm 3 mps 697 mmHg 22%
12:00 +33°C° 0 mm 4 mps 697 mmHg 19%
13:00 +34°C° 0 mm 4 mps 697 mmHg 17%
14:00 +35°C° 0 mm 4 mps 697 mmHg 15%
15:00 +35°C° 0 mm 4 mps 696 mmHg 13%
16:00 +35°C° 0 mm 4 mps 696 mmHg 14%
17:00 +34°C° 0 mm 4 mps 696 mmHg 16%
18:00 +33°C° 0 mm 4 mps 696 mmHg 17%
19:00 +29°C° 0 mm 4 mps 696 mmHg 26%
20:00 +25°C° 0 mm 3 mps 696 mmHg 34%
21:00 +21°C° 0 mm 2 mps 696 mmHg 43%
22:00 +20°C° 0 mm 2 mps 695 mmHg 45%
23:00 +18°C° 0 mm 2 mps 695 mmHg 48%

Tomorrow, 30 July, Friday

Time Temperature Precipitation Wind Pressure Humidity
00:00 +17°C° 0 mm 2 mps 695 mmHg 50%
01:00 +17°C° 0 mm 2 mps 695 mmHg 50%
02:00 +16°C° 0 mm 2 mps 695 mmHg 50%
03:00 +16°C° 0 mm 2 mps 695 mmHg 50%
04:00 +16°C° 0 mm 1 mps 695 mmHg 51%
05:00 +16°C° 0 mm 1 mps 695 mmHg 51%
06:00 +15°C° 0 mm 1 mps 696 mmHg 51%
07:00 +19°C° 0 mm 1 mps 696 mmHg 44%
08:00 +23°C° 0 mm 2 mps 697 mmHg 37%
09:00 +26°C° 0 mm 2 mps 697 mmHg 29%
10:00 +28°C° 0 mm 2 mps 697 mmHg 26%
11:00 +30°C° 0 mm 3 mps 698 mmHg 23%
12:00 +33°C° 0 mm 3 mps 698 mmHg 20%
13:00 +33°C° 0 mm 3 mps 697 mmHg 18%
14:00 +34°C° 0 mm 4 mps 697 mmHg 17%
15:00 +34°C° 0 mm 5 mps 696 mmHg 15%
16:00 +33°C° 0 mm 5 mps 696 mmHg 17%
17:00 +32°C° 0 mm 5 mps 696 mmHg 19%
18:00 +29°C° 0 mm 5 mps 696 mmHg 21%
19:00 +26°C° 0 mm 4 mps 696 mmHg 31%
20:00 +21°C° 0 mm 3 mps 696 mmHg 41%
21:00 +18°C° 0 mm 3 mps 696 mmHg 51%
22:00 +17°C° 0 mm 2 mps 695 mmHg 59%
23:00 +15°C° 0 mm 2 mps 695 mmHg 66%

Day after tomorrow, 31 July, Saturday

Time Temperature Precipitation Wind Pressure Humidity
00:00 +14°C° 0 mm 2 mps 695 mmHg 74%
01:00 +14°C° 0 mm 2 mps 695 mmHg 75%
02:00 +14°C° 0 mm 2 mps 695 mmHg 76%
03:00 +13°C° 0 mm 2 mps 695 mmHg 77%
04:00 +13°C° 0 mm 2 mps 695 mmHg 79%
05:00 +13°C° 0 mm 2 mps 695 mmHg 81%
06:00 +12°C° 0 mm 3 mps 695 mmHg 83%
07:00 +14°C° 0 mm 3 mps 696 mmHg 74%
08:00 +17°C° 0 mm 4 mps 696 mmHg 64%
09:00 +19°C° 0 mm 4 mps 697 mmHg 54%
10:00 +21°C° 0 mm 4 mps 697 mmHg 45%
11:00 +23°C° 0 mm 4 mps 697 mmHg 36%
12:00 +26°C° 0 mm 4 mps 697 mmHg 28%
13:00 +27°C° 0 mm 4 mps 697 mmHg 24%
14:00 +27°C° 0 mm 4 mps 697 mmHg 20%
15:00 +28°C° 0 mm 4 mps 697 mmHg 17%
16:00 +28°C° 0 mm 5 mps 697 mmHg 18%
17:00 +27°C° 0 mm 5 mps 696 mmHg 19%
18:00 +26°C° 0 mm 5 mps 696 mmHg 20%
19:00 +23°C° 0 mm 4 mps 696 mmHg 30%
20:00 +20°C° 0 mm 4 mps 697 mmHg 40%
21:00 +18°C° 0 mm 4 mps 697 mmHg 50%
22:00 +16°C° 0 mm 3 mps 697 mmHg 57%
23:00 +14°C° 0 mm 3 mps 696 mmHg 64%

1 August, Sunday

Time Temperature Precipitation Wind Pressure Humidity
00:00 +13°C° 0 mm 2 mps 696 mmHg 72%
01:00 +13°C° 0 mm 2 mps 696 mmHg 73%
02:00 +12°C° 0 mm 2 mps 696 mmHg 75%
03:00 +12°C° 0 mm 2 mps 696 mmHg 76%
04:00 +10°C° 0 mm 2 mps 696 mmHg 76%
05:00 +10°C° 0 mm 2 mps 696 mmHg 77%
06:00 +10°C° 0 mm 2 mps 696 mmHg 77%
07:00 +13°C° 0 mm 2 mps 696 mmHg 64%
08:00 +16°C° 0 mm 2 mps 697 mmHg 52%
09:00 +19°C° 0 mm 3 mps 697 mmHg 39%
10:00 +21°C° 0 mm 3 mps 697 mmHg 32%
11:00 +24°C° 0 mm 3 mps 697 mmHg 25%
12:00 +27°C° 0 mm 3 mps 697 mmHg 17%
13:00 +27°C° 0 mm 4 mps 697 mmHg 18%
14:00 +28°C° 0 mm 4 mps 697 mmHg 19%
15:00 +29°C° 0 mm 4 mps 697 mmHg 19%
16:00 +28°C° 0 mm 4 mps 696 mmHg 22%
17:00 +27°C° 0 mm 4 mps 696 mmHg 24%
18:00 +27°C° 0 mm 4 mps 696 mmHg 27%
19:00 +23°C° 0 mm 4 mps 696 mmHg 36%
20:00 +20°C° 0 mm 3 mps 695 mmHg 45%
21:00 +18°C° 0 mm 3 mps 695 mmHg 54%
22:00 +17°C° 0 mm 2 mps 695 mmHg 59%
23:00 +16°C° 0 mm 2 mps 695 mmHg 64%

2 August, Monday

Time Temperature Precipitation Wind Pressure Humidity
00:00 +15°C° 0 mm 2 mps 695 mmHg 68%
01:00 +14°C° 0 mm 2 mps 695 mmHg 71%
02:00 +14°C° 0 mm 2 mps 695 mmHg 73%
03:00 +13°C° 0 mm 2 mps 694 mmHg 75%
04:00 +13°C° 0 mm 2 mps 694 mmHg 76%
05:00 +13°C° 0 mm 2 mps 694 mmHg 77%
06:00 +13°C° 0 mm 2 mps 694 mmHg 78%
07:00 +15°C° 0 mm 2 mps 695 mmHg 66%
08:00 +18°C° 0 mm 2 mps 695 mmHg 53%
09:00 +21°C° 0 mm 2 mps 696 mmHg 41%
10:00 +24°C° 0 mm 2 mps 696 mmHg 36%
11:00 +26°C° 0 mm 2 mps 696 mmHg 31%
12:00 +29°C° 0 mm 2 mps 696 mmHg 26%
13:00 +29°C° 0 mm 2 mps 696 mmHg 24%
14:00 +30°C° 0 mm 2 mps 695 mmHg 22%
15:00 +30°C° 0 mm 3 mps 695 mmHg 20%
16:00 +30°C° 0 mm 3 mps 695 mmHg 20%
17:00 +29°C° 0 mm 3 mps 694 mmHg 21%
18:00 +29°C° 0 mm 3 mps 694 mmHg 21%
19:00 +26°C° 0 mm 3 mps 694 mmHg 29%
20:00 +22°C° 0 mm 3 mps 694 mmHg 37%
21:00 +20°C° 0 mm 3 mps 694 mmHg 45%
22:00 +19°C° 0 mm 3 mps 694 mmHg 50%
23:00 +17°C° 0 mm 3 mps 694 mmHg 55%

3 August, Tuesday

Time Temperature Precipitation Wind Pressure Humidity
00:00 +16°C° 0 mm 2 mps 694 mmHg 61%
01:00 +16°C° 0 mm 2 mps 694 mmHg 63%
02:00 +15°C° 0 mm 2 mps 694 mmHg 65%
03:00 +15°C° 0 mm 2 mps 694 mmHg 67%
04:00 +14°C° 0 mm 2 mps 694 mmHg 69%
05:00 +14°C° 0 mm 2 mps 694 mmHg 72%
06:00 +13°C° 0 mm 2 mps 694 mmHg 74%
07:00 +16°C° 0 mm 2 mps 695 mmHg 62%
08:00 +20°C° 0 mm 2 mps 695 mmHg 51%
09:00 +24°C° 0 mm 2 mps 696 mmHg 39%
10:00 +26°C° 0 mm 3 mps 696 mmHg 33%
11:00 +28°C° 0 mm 3 mps 696 mmHg 27%
12:00 +30°C° 0 mm 3 mps 696 mmHg 20%
13:00 +30°C° 0 mm 3 mps 696 mmHg 19%
14:00 +31°C° 0 mm 3 mps 696 mmHg 17%
15:00 +33°C° 0 mm 3 mps 696 mmHg 15%
16:00 +32°C° 0 mm 4 mps 695 mmHg 16%
17:00 +30°C° 0 mm 4 mps 695 mmHg 17%
18:00 +30°C° 0 mm 4 mps 695 mmHg 18%
19:00 +27°C° 0 mm 4 mps 695 mmHg 24%
20:00 +25°C° 0 mm 4 mps 695 mmHg 31%
21:00 +21°C° 0 mm 3 mps 695 mmHg 38%
22:00 +20°C° 0 mm 3 mps 696 mmHg 42%
23:00 +19°C° 0 mm 3 mps 696 mmHg 47%
Show more

We Need Your Consent

Meteoprog and our Service Providers may store and access personal data such as cookies, device identifiers or other similar technologies on your device and process such data to personalise content and ads, as well as provide social media features and to analyse the traffic.

  • Store and/or access information on your device

    Cookies, device identifiers or other information can be stored or accessed on your device for the purposes indicated above.

  • Personalised ads and content, ad and content measurement, audience insights, and products development

    Ads and content can be personalised based on a profile. More data can be added to better personalise ads and content. Ad and content performance can be measured. Insights about the audience who saw the ads and content can be derived. Such data can be used to develop or improve user’s experience, systems and software.

By clicking ‘I Agree’ you will allow the use of indicated cookies, device identifiers, web beacons or other similar technologies. Your settings can be changed in the browser on your device.

For certain purposes, legitimate interests may be relied on, rather than consent. You can read more about this in our Privacy and Cookie Policy.